Weather History for MMTO - December, 2012

Change the Weather History Date:

Saturday, December 15, 2012

  Actual Average Record
Temperature  
Mean Temperature 53 °F -  
Max Temperature 73 °F - - ()
Min Temperature 33 °F - - ()
Degree Days  
Heating Degree Days 12    
Growing Degree Days 3 (Base 50)    
Moisture  
Dew Point 36 °F    
Average Humidity 62    
Maximum Humidity 93    
Minimum Humidity 23    
Precipitation  
Precipitation 0.00 in - - ()
Sea Level Pressure  
Sea Level Pressure 30.23 in    
Wind  
Wind Speed 2 mph ()    
Max Wind Speed 14 mph    
Max Gust Speed -    
Visibility 5.7 miles    
Events      
T = Trace of Precipitation, MM = Missing Value Source: Averaged Metar Reports

Daily Weather History Graph

Daily Weather History Graph

Search for Another Location

Airport or City:

Trip Planner

Search our weather history database for the weather conditions in past years. The results will help you decide how hot, cold, wet, or windy it might be!

Date:

Astronomy

Dec. 15, 2012 Rise Set
Actual Time 7:04 AM CST 6:02 PM CST
Civil Twilight 6:40 AM CST 6:26 PM CST
Nautical Twilight 6:13 AM CST 6:54 PM CST
Astronomical Twilight 5:46 AM CST 7:21 PM CST
Moon 9:12 AM CST (12/15) 8:52 PM CST (12/15)
Length of Visible Light 11h 46m
Length of Day
10h 58m
Waxing Crescent, 8% of the Moon is Illuminated
Dec 15
Waxing Crescent
Dec 19
First Quarter
Dec 28
Full
Jan 4
Last Quarter
Jan 11
New

Hourly Weather History & Observations

Time (CST) Temp. Windchill Dew Point Humidity Pressure Visibility Wind Dir Wind Speed Gust Speed Precip Events Conditions
12:45 AM 42.8 °F - 39.2 °F 87% 30.42 in 6.0 mi Calm Calm - N/A   Clear
1:45 AM 41.0 °F - 37.4 °F 87% 30.41 in 5.0 mi Calm Calm - N/A   Clear
2:45 AM 37.4 °F - 33.8 °F 87% 29.92 in 5.0 mi Calm Calm - N/A   Clear
3:45 AM 39.2 °F - 35.6 °F 87% 30.39 in 4.0 mi Calm Calm - N/A   Clear
4:45 AM 35.6 °F - 33.8 °F 93% 30.38 in 4.0 mi Calm Calm - N/A   Clear
5:45 AM 33.8 °F - 32.0 °F 93% 29.98 in 3.0 mi Calm Calm - N/A   Clear
6:45 AM 33.8 °F 30.8 °F 32.0 °F 93% 30.41 in 5.5 mi West 3.5 mph - N/A   Partly Cloudy
7:45 AM 35.6 °F 32.8 °F 33.8 °F 93% 30.43 in 2.0 mi West 3.5 mph - N/A   Scattered Clouds
8:45 AM 42.8 °F - 39.2 °F 87% 30.05 in 2.0 mi Calm Calm - N/A   Partly Cloudy
9:45 AM 51.8 °F - 41.0 °F 67% 30.45 in 2.0 mi Calm Calm - N/A   Scattered Clouds
10:45 AM 60.8 °F - 41.0 °F 48% 30.43 in 3.0 mi South 4.6 mph - N/A   Partly Cloudy
11:45 AM 64.4 °F - 37.4 °F 37% 29.89 in 3.0 mi NW 3.5 mph - N/A   Clear
12:45 PM 69.8 °F - 35.6 °F 28% 30.37 in 5.0 mi ESE 4.6 mph - N/A   Partly Cloudy
1:45 PM 71.6 °F - 33.8 °F 25% 30.33 in 6.0 mi South 5.8 mph - N/A   Mostly Cloudy
2:45 PM 73.4 °F - 35.6 °F 25% 29.79 in 7.0 mi East 13.8 mph - N/A   Mostly Cloudy
3:45 PM 69.8 °F - 33.8 °F 27% 30.30 in 7.0 mi South 12.7 mph - N/A   Mostly Cloudy
4:45 PM 69.8 °F - 30.2 °F 23% 30.30 in 7.0 mi South 12.7 mph - N/A   Mostly Cloudy
5:45 PM 64.4 °F - 30.2 °F 28% 29.91 in 10.0 mi South 8.1 mph - N/A   Scattered Clouds
6:45 PM 60.8 °F - 33.8 °F 36% 30.34 in 10.0 mi West 4.6 mph - N/A   Scattered Clouds
7:45 PM 55.4 °F - 35.6 °F 47% 30.36 in 8.0 mi East 4.6 mph - N/A   Clear
8:45 PM 51.8 °F - 44.6 °F 76% 29.99 in 8.0 mi NW 4.6 mph - N/A   Clear
9:45 PM 51.8 °F - 44.6 °F 76% 30.40 in 8.0 mi WNW 4.6 mph - N/A   Clear
10:45 PM 46.4 °F - 37.4 °F 71% 30.40 in 8.0 mi Calm Calm - N/A   Clear
11:45 PM 44.6 °F - 37.4 °F 76% 29.91 in 8.0 mi Calm Calm - N/A   Clear